Temp
73 80 80 75 79 79 70 68 61 66 68 72 76 78 82 84 82 79 83 83 83 82 81 79 78 79 80 79 79 80 77 75 71 72 71 69 69 69 69 69 70 69 69 69
68 79 80 76 80 80 78 76 72 71 72 81 81 84 80 82 83 82 83 85 84 84 82 81 81 80 81 79 78 80 75 73 72 71 70 68 67 67 68 68 69 69 68 68
60 73 74 66 75 77 75 77 74 66 69 76 79 82 79 80 82 83 85 86 85 83 83 83 82 82 80 76 79 78 74 74 72 71 68 67 67 67 66 67 67 67 67 67
60 62 54 72 82 84 78 79 79 78 80 80 77 79 80 82 80 81 83 83 84 84 84 84 83 82 82 78 76 76 72 72 70 70 67 67 66 65 66 66 66 66 66 67
59 57 66 75 78 77 72 70 80 76 79 82 82 79 77 84 84 82 83 81 81 85 85 83 83 82 80 77 76 72 69 69 68 69 67 66 65 65 66 66 66 66 67 66
62 55 53 66 81 86 82 61 79 79 77 78 78 65 69 80 84 83 79 76 81 86 86 84 81 80 78 75 74 71 70 68 69 68 67 66 66 66 66 66 66 66 66 66
59 58 65 74 81 83 60 61 78 79 77 75 70 72 78 83 81 81 78 74 75 75 66 66 67 64 62 71 70 71 70 70 69 69 68 68 67 67 66 65 64 64 64 64
60 56 53 79 78 67 70 74 78 78 78 77 78 81 80 82 80 77 72 72 70 66 66 68 67 64 62 65 69 69 69 68 68 69 70 69 67 66 65 63 63 62 62 62
66 60 72 76 75 77 77 75 76 76 80 79 80 79 80 80 77 71 71 69 69 65 64 65 63 64 64 65 69 69 69 69 69 69 68 67 65 64 63 63 62 61 61 60
67 69 74 77 78 80 80 77 80 80 80 80 78 81 77 78 73 72 71 68 68 67 62 63 65 66 65 66 68 67 67 68 67 66 67 66 66 65 63 62 61 61 60 60
67 69 74 76 78 79 80 82 82 82 79 77 76 77 77 74 70 71 71 69 69 67 65 65 65 64 65 66 69 68 67 67 67 67 66 66 65 65 64 64 64 62 62 62
62 70 68 71 76 82 78 80 79 76 74 76 76 71 71 69 71 72 71 68 68 69 66 66 67 66 67 69 69 68 66 66 66 66 66 65 64 64 61 60 59 58 58 60
70 76 76 77 81 84 79 81 79 75 74 72 74 73 72 67 67 66 67 67 66 67 67 67 67 67 67 68 68 67 65 66 66 66 65 64 64 63 63 64 54 53 51 51
78 76 73 79 75 82 82 81 75 77 75 74 74 71 70 67 68 67 66 67 68 68 67 66 67 67 67 69 69 67 65 63 66 66 66 66 69 65 65 65 62 64 59 54
78 79 76 75 78 79 80 75 67 65 67 72 71 68 66 64 63 62 63 66 65 65 64 66 65 64 67 70 70 69 68 66 66 65 64 65 65 64 67 63 61 61 64 58
78 78 80 78 78 76 71 67 65 64 65 66 67 67 67 66 63 61 62 63 61 61 62 62 63 62 63 61 61 65 63 64 64 64 63 62 62 62 61 60 61 60 59 60
72 69 67 67 66 65 66 65 63 62 61 61 63 66 67 64 62 61 60 61 60 60 62 60 59 62 62 63 61 58 58 64 64 63 62 61 61 60 59 59 58 57 58 55
73 72 70 68 64 63 63 64 63 62 60 61 61 65 64 62 60 60 59 60 60 59 61 60 64 63 62 61 59 60 61 65 64 63 62 61 60 59 58 58 57 56 56 57
69 67 67 66 64 63 63 63 63 63 63 62 60 59 59 58 58 58 59 58 56 55 56 61 62 61 59 62 61 58 60 63 61 60 60 59 59 58 57 57 57 56 55 54
68 67 66 65 65 64 61 62 62 61 62 60 58 56 55 57 57 58 58 53 54 55 59 59 58 58 60 58 60 57 59 60 58 57 57 55 55 54 54 54 55 55 54 54
65 65 64 63 63 64 63 62 60 58 58 58 57 55 54 55 55 55 53 50 55 58 59 58 55 51 53 57 56 57 58 57 56 54 55 54 54 54 54 54 54 54 54 53
65 63 62 61 60 59 60 60 58 57 57 56 55 55 54 52 52 52 54 55 55 57 55 53 51 55 55 59 56 57 56 56 54 53 53 53 53 52 52 52 52 53 53 52
64 64 62 60 59 58 60 59 59 58 57 56 55 55 54 54 53 51 49 52 53 55 53 51 55 58 57 53 55 56 56 56 54 53 53 52 52 52 52 52 52 53 53 55
60 59 59 60 60 58 56 57 57 57 57 57 57 57 56 53 51 53 52 55 55 55 54 53 55 58 56 53 54 54 54 54 54 53 53 53 53 53 52 52 52 56 55 54
60 60 62 61 59 58 57 57 56 56 56 56 56 57 57 56 54 54 54 54 55 53 53 56 57 58 54 54 54 54 53 53 54 54 56 54 56 56 53 54 55 55 55 54
62 62 62 62 62 60 59 58 57 56 56 56 57 57 57 56 56 55 55 56 57 55 55 54 52 52 53 55 55 55 55 55 58 58 57 56 54 52 52 52 51 51 51 51
65 61 63 62 62 60 60 59 58 58 58 58 57 58 58 58 57 57 56 58 57 57 57 57 57 54 55 56 56 56 56 56 54 55 55 54 53 52 52 52 52 51 51 50
MSLP
999.76 999.17 998.46 998.21 998.14 998.41 999.10 999.78 1000.65 1000.78 1000.77 1000.31 1000.26 1000.06 1000.06 1000.48 1001.33 1002.17 1003.04 1002.99 1003.54 1004.30 1004.78 1005.53 1006.39 1007.11 1007.58 1008.10 1008.58 1009.19 1010.07 1010.93 1011.57 1011.90 1012.60 1013.22 1013.86 1014.38 1014.84 1015.20 1015.45 1015.63 1015.74 1015.86
1000.41 999.49 998.90 998.55 998.19 998.14 998.44 998.97 999.43 999.80 999.92 999.46 999.27 999.39 999.91 1000.15 1000.70 1001.76 1001.93 1002.06 1002.45 1003.03 1003.68 1004.43 1005.32 1006.27 1006.99 1007.72 1008.29 1008.85 1009.75 1010.59 1011.36 1012.03 1012.68 1013.20 1013.62 1014.05 1014.45 1014.82 1015.09 1015.34 1015.55 1015.66
1001.14 1000.06 999.42 999.22 998.67 998.42 998.34 998.68 999.26 1000.08 1000.60 999.15 999.44 999.96 1000.49 1000.54 1000.27 1000.66 1000.86 1001.14 1001.59 1002.05 1002.93 1003.71 1004.48 1005.60 1006.83 1007.91 1008.81 1009.48 1010.17 1010.90 1011.41 1012.08 1012.91 1013.45 1013.87 1014.40 1014.60 1014.80 1014.95 1015.23 1015.40 1015.55
1001.68 1000.99 1000.50 999.42 998.77 998.62 999.59 1000.16 1000.23 1000.58 1000.65 1000.96 1001.23 1001.09 1000.78 1000.80 1000.67 1000.40 1000.63 1001.03 1001.23 1001.96 1002.51 1003.30 1004.02 1005.23 1006.38 1007.48 1008.70 1009.78 1010.58 1011.10 1011.67 1012.46 1013.19 1013.94 1014.39 1014.72 1014.69 1014.62 1014.69 1015.03 1015.29 1015.39
1001.71 1001.68 1001.13 1000.05 999.66 999.60 1000.03 1001.47 1001.38 1001.56 1001.59 1001.35 1001.50 1001.49 1001.61 1001.33 1000.93 1000.85 1000.83 1001.02 1001.39 1000.92 1001.58 1002.59 1003.31 1004.19 1005.54 1007.31 1008.29 1009.66 1010.84 1011.75 1012.10 1012.41 1013.31 1014.40 1014.95 1014.98 1014.77 1014.54 1014.41 1014.43 1014.67 1015.18
1001.94 1002.29 1001.91 1001.57 1000.63 1000.06 1000.03 1002.01 1002.21 1002.16 1002.30 1002.25 1001.88 1002.18 1002.30 1001.62 1001.15 1001.38 1001.86 1001.72 1001.12 1001.13 1001.76 1003.14 1004.74 1003.90 1005.26 1006.19 1007.50 1009.33 1010.36 1011.62 1011.63 1012.58 1012.61 1013.26 1013.90 1014.34 1014.40 1014.76 1014.59 1014.39 1014.41 1014.48
1002.23 1002.34 1001.89 1001.85 1001.29 1000.82 1001.54 1003.45 1002.70 1002.69 1002.71 1002.67 1002.67 1002.50 1001.98 1001.73 1001.83 1002.29 1002.90 1002.83 1002.03 1002.05 1004.10 1005.87 1006.41 1006.63 1010.89 1008.02 1006.83 1007.96 1009.69 1011.07 1011.29 1012.26 1012.66 1013.33 1014.12 1014.34 1014.66 1014.59 1014.74 1014.74 1014.70 1014.48
1002.26 1002.50 1002.61 1001.95 1001.74 1002.46 1003.23 1002.97 1003.01 1002.99 1002.83 1002.68 1002.40 1002.02 1001.75 1001.83 1002.28 1003.05 1003.81 1004.41 1004.24 1004.34 1005.31 1005.35 1004.74 1007.87 1011.74 1008.89 1006.74 1009.99 1010.86 1011.75 1012.26 1013.07 1013.06 1013.30 1013.94 1014.31 1014.62 1014.98 1014.98 1014.72 1014.75 1014.67
1002.23 1002.95 1002.40 1002.08 1002.45 1002.81 1003.01 1003.31 1003.28 1003.18 1002.90 1002.70 1002.60 1002.37 1002.08 1002.36 1003.09 1004.17 1004.88 1005.90 1005.91 1005.43 1005.39 1006.26 1007.14 1008.87 1010.85 1009.87 1010.17 1010.50 1009.66 1011.42 1012.14 1012.79 1013.23 1013.62 1013.78 1014.30 1014.96 1015.12 1014.76 1014.53 1014.53 1014.49
1002.40 1003.03 1002.62 1002.53 1002.60 1002.83 1003.08 1003.41 1003.30 1003.15 1003.09 1003.16 1003.25 1002.64 1002.75 1003.26 1004.08 1005.02 1006.18 1007.07 1007.61 1007.72 1007.61 1007.65 1008.09 1008.51 1008.02 1009.68 1009.81 1010.03 1011.36 1011.49 1011.69 1012.66 1013.24 1013.69 1013.55 1013.94 1014.57 1014.63 1014.47 1014.15 1014.07 1014.26
1002.68 1002.84 1002.91 1003.04 1002.97 1003.07 1003.23 1003.30 1003.33 1003.76 1004.11 1004.11 1003.66 1003.46 1003.73 1004.40 1005.54 1006.04 1006.85 1008.15 1008.64 1009.03 1009.71 1010.09 1010.07 1010.33 1010.48 1010.25 1010.33 1011.21 1011.43 1011.71 1012.41 1012.43 1012.78 1012.95 1013.27 1013.68 1014.00 1013.58 1013.60 1013.45 1013.30 1013.33
1002.99 1003.02 1003.02 1003.11 1002.93 1002.99 1003.29 1003.40 1003.63 1004.42 1004.83 1004.75 1004.82 1005.23 1005.14 1005.62 1006.07 1006.53 1007.31 1008.27 1008.75 1009.31 1010.09 1011.11 1010.80 1010.06 1009.96 1010.06 1010.13 1010.78 1011.40 1011.94 1012.19 1012.06 1012.41 1012.41 1013.01 1012.96 1012.95 1012.73 1012.65 1012.55 1012.63 1012.79
1002.78 1002.74 1002.77 1002.81 1002.89 1003.03 1003.35 1003.54 1004.31 1005.04 1005.42 1005.55 1005.77 1005.89 1006.32 1007.09 1007.34 1007.42 1008.14 1008.88 1009.44 1009.37 1009.02 1010.01 1010.62 1010.18 1009.96 1010.01 1010.47 1010.95 1011.47 1011.64 1011.70 1012.00 1012.03 1012.02 1012.55 1012.95 1012.76 1012.25 1012.27 1012.29 1012.66 1012.55
1002.50 1002.65 1002.90 1003.05 1003.36 1003.36 1003.57 1004.17 1004.95 1005.61 1006.33 1006.79 1007.03 1007.62 1007.91 1008.21 1008.53 1008.91 1009.40 1009.58 1009.49 1009.86 1010.33 1010.94 1010.91 1011.12 1010.75 1010.69 1010.93 1011.25 1011.58 1011.44 1011.52 1011.81 1011.89 1011.99 1012.10 1012.40 1012.30 1012.32 1012.69 1012.55 1012.10 1012.25
1002.77 1003.07 1003.40 1003.54 1003.71 1003.93 1004.18 1005.49 1006.92 1007.87 1008.75 1008.40 1008.75 1008.74 1009.10 1009.70 1010.54 1011.10 1010.93 1010.40 1010.46 1010.69 1011.49 1011.55 1011.82 1012.07 1012.17 1011.49 1011.51 1011.48 1011.70 1011.94 1011.92 1011.90 1012.38 1012.41 1012.33 1012.45 1012.22 1012.57 1013.01 1012.81 1012.63 1012.91
1003.30 1003.67 1003.87 1004.21 1004.17 1004.97 1005.62 1006.50 1007.57 1008.23 1009.37 1010.23 1010.61 1010.20 1010.63 1011.00 1011.55 1011.70 1011.71 1011.72 1011.59 1012.04 1012.28 1012.70 1012.95 1013.21 1012.86 1012.43 1012.55 1012.23 1012.21 1012.13 1012.14 1012.24 1012.59 1012.61 1012.65 1012.42 1012.89 1013.37 1013.25 1013.16 1013.75 1014.17
1004.02 1004.82 1005.14 1006.07 1007.33 1007.38 1007.38 1008.43 1008.31 1009.61 1010.39 1011.11 1012.53 1011.69 1012.10 1012.68 1012.53 1012.90 1013.08 1013.07 1013.04 1012.92 1013.03 1013.41 1013.66 1013.31 1012.92 1012.75 1012.92 1013.15 1012.71 1012.28 1012.36 1012.42 1012.47 1012.60 1012.82 1013.13 1013.35 1013.54 1013.71 1014.00 1014.38 1014.41
1005.06 1005.98 1006.35 1006.66 1008.76 1009.34 1009.50 1009.49 1009.19 1010.01 1010.53 1010.96 1012.08 1012.11 1012.82 1013.38 1013.67 1014.02 1014.02 1013.98 1013.75 1013.85 1013.96 1014.05 1013.67 1013.52 1013.54 1013.56 1013.67 1013.33 1013.09 1012.88 1012.77 1012.51 1012.44 1012.66 1012.94 1013.17 1013.33 1013.59 1013.86 1014.04 1014.19 1014.38
1006.65 1007.66 1008.39 1009.00 1009.63 1009.97 1010.32 1010.70 1011.22 1011.58 1011.84 1012.23 1012.82 1013.60 1013.60 1013.05 1013.90 1014.63 1014.76 1014.75 1014.81 1014.73 1014.88 1014.56 1014.12 1013.91 1014.20 1014.18 1014.01 1013.36 1012.99 1012.82 1012.71 1012.91 1013.31 1013.74 1013.98 1014.18 1014.27 1014.33 1014.35 1014.41 1014.52 1014.75
1007.83 1008.78 1009.51 1010.09 1010.70 1011.15 1011.61 1011.99 1012.15 1012.34 1012.73 1012.85 1013.37 1013.60 1014.08 1014.61 1015.05 1015.19 1015.31 1015.71 1015.38 1015.39 1015.27 1015.22 1015.07 1015.00 1014.82 1014.58 1014.18 1013.75 1013.55 1013.75 1013.88 1014.12 1014.33 1014.55 1014.66 1014.72 1014.76 1014.83 1014.81 1014.94 1014.93 1014.99
1008.92 1009.59 1010.38 1010.94 1011.44 1011.98 1012.37 1012.74 1013.09 1013.41 1013.75 1013.84 1013.96 1014.64 1015.31 1015.67 1015.74 1015.88 1016.14 1015.96 1015.69 1015.51 1015.83 1015.94 1016.12 1016.07 1015.57 1015.36 1014.96 1014.51 1014.51 1014.81 1015.00 1015.15 1015.20 1015.25 1015.31 1015.27 1015.24 1015.34 1015.39 1015.39 1015.36 1015.29
1009.90 1010.67 1011.30 1011.71 1012.05 1012.61 1013.19 1013.58 1014.00 1014.39 1014.69 1014.96 1015.27 1015.43 1015.71 1016.18 1016.15 1016.34 1016.30 1016.23 1016.35 1016.18 1016.55 1016.61 1016.61 1016.42 1016.14 1015.71 1015.43 1015.39 1015.45 1015.57 1015.85 1015.99 1015.99 1016.00 1015.90 1015.91 1015.85 1015.77 1015.68 1015.54 1015.30 1015.12
1010.93 1011.46 1011.98 1012.44 1012.81 1013.26 1013.59 1014.02 1014.40 1014.74 1015.08 1015.31 1015.51 1015.57 1015.73 1016.10 1016.15 1016.31 1016.69 1016.87 1016.58 1016.73 1016.86 1016.90 1016.84 1016.69 1016.53 1016.40 1016.19 1016.24 1016.16 1016.15 1016.28 1016.32 1016.35 1016.31 1016.27 1016.15 1015.99 1015.78 1015.59 1015.35 1015.21 1015.03
1011.69 1012.23 1012.71 1013.12 1013.41 1013.79 1014.12 1014.59 1014.82 1015.02 1015.12 1015.24 1015.33 1015.50 1015.80 1016.33 1016.55 1016.53 1016.64 1016.83 1016.87 1016.99 1017.11 1017.24 1017.17 1017.04 1016.87 1016.74 1016.67 1016.62 1016.50 1016.35 1016.24 1016.16 1016.12 1015.97 1015.90 1015.75 1015.73 1015.71 1015.66 1015.41 1015.24 1015.04
1012.18 1012.53 1012.86 1013.22 1013.69 1014.18 1014.49 1014.73 1014.93 1015.10 1015.23 1015.37 1015.46 1015.58 1015.63 1015.88 1016.31 1016.66 1016.74 1016.80 1016.85 1017.08 1017.17 1017.20 1017.24 1017.11 1016.92 1016.77 1016.69 1016.56 1016.41 1016.18 1015.92 1015.77 1015.73 1015.88 1015.86 1015.68 1015.58 1015.39 1015.12 1014.91 1014.70 1014.50
1012.31 1012.53 1012.79 1013.03 1013.41 1013.87 1014.26 1014.60 1014.97 1015.19 1015.33 1015.61 1015.62 1015.76 1015.94 1016.09 1016.23 1016.44 1016.45 1016.54 1016.60 1016.60 1016.63 1016.79 1016.95 1016.97 1016.78 1016.55 1016.35 1016.16 1015.95 1015.68 1015.43 1015.41 1015.39 1015.39 1015.25 1015.19 1015.02 1014.78 1014.59 1014.43 1014.25 1014.03
1012.46 1012.54 1012.83 1013.18 1013.62 1013.87 1014.07 1014.39 1014.79 1015.12 1015.27 1015.45 1015.72 1015.77 1015.84 1015.99 1016.03 1016.13 1016.21 1016.25 1016.32 1016.29 1016.32 1016.33 1016.29 1016.21 1016.06 1015.87 1015.69 1015.44 1015.22 1015.00 1014.90 1014.82 1014.70 1014.70 1014.60 1014.42 1014.26 1014.13 1013.94 1013.73 1013.55 1013.29
Wind_Speed
10 8 7 0 5 5 6 6 4 7 6 6 5 10 10 13 18 18 18 17 17 17 16 15 14 14 14 9 11 12 12 11 8 8 8 9 8 7 6 4 2 3 3 2
8 8 8 6 9 9 3 4 4 3 6 9 10 8 6 7 14 14 18 19 19 20 20 20 19 17 16 11 13 13 12 12 9 11 10 8 8 7 6 5 5 3 1 2
6 7 6 5 7 7 2 3 3 2 5 1 5 5 6 6 5 11 17 17 20 21 21 19 19 18 16 10 12 12 11 11 12 11 9 7 7 6 5 5 4 4 2 1
4 5 2 8 9 9 19 14 14 12 13 10 7 8 11 9 9 5 2 9 13 14 17 17 17 16 15 11 13 11 10 11 10 10 8 7 6 6 5 5 5 4 3 2
5 1 4 11 6 6 6 8 11 11 11 10 4 7 8 7 8 7 8 3 7 15 20 17 20 19 17 14 13 11 10 7 9 10 9 5 5 6 5 4 4 5 5 4
2 2 1 2 10 8 6 5 8 9 9 9 9 5 4 7 8 10 13 12 7 12 16 12 4 16 18 18 16 13 11 8 8 7 11 9 8 7 4 3 3 3 2 5
2 3 1 5 8 7 3 2 6 6 5 4 3 5 3 6 6 8 11 15 19 20 21 14 19 19 27 7 15 14 11 11 9 7 8 7 5 3 3 3 3 1 2 2
1 1 2 6 5 7 4 4 6 6 6 5 7 8 2 5 4 12 13 15 10 9 9 6 17 16 23 31 15 9 7 6 6 5 4 5 7 4 3 3 3 3 3 4
7 7 6 5 9 8 8 4 5 5 7 7 9 9 3 4 9 14 13 13 9 10 8 8 14 18 15 5 2 9 14 8 6 5 4 5 6 4 3 5 5 4 4 4
7 5 6 8 9 8 7 4 5 5 5 8 9 9 2 13 14 13 14 13 11 13 10 10 13 16 17 16 11 5 3 9 7 5 5 5 4 4 5 5 5 5 3 3
5 6 10 8 7 5 4 6 3 10 13 11 12 10 11 11 9 13 17 13 11 12 11 7 5 4 7 9 10 10 7 6 7 6 7 6 5 6 6 6 6 5 5 4
3 5 6 1 2 5 3 6 8 13 12 10 12 7 10 11 11 13 12 12 11 13 10 5 6 7 6 7 7 7 6 5 5 4 5 5 5 5 10 9 10 7 6 4
3 5 4 1 3 5 3 4 14 13 7 8 4 4 12 9 13 15 13 12 7 8 10 8 5 4 3 5 6 5 2 4 3 4 5 5 4 5 5 5 6 4 4 4
3 2 2 3 3 6 5 10 12 8 8 7 8 10 11 13 15 13 10 8 9 12 11 8 9 7 3 5 3 6 4 2 4 3 3 3 2 2 2 3 1 3 5 6
5 5 3 3 1 3 10 13 17 15 18 10 12 11 11 11 12 10 9 10 11 12 9 10 13 12 11 9 7 6 4 4 4 4 3 5 5 4 5 5 4 3 3 5
4 3 6 6 4 8 10 12 15 11 7 9 6 10 8 10 10 9 11 10 11 11 11 11 10 4 5 8 8 8 5 8 7 4 4 5 4 5 5 6 7 7 6 5
2 6 6 14 16 17 14 9 9 11 12 18 17 6 10 11 12 11 10 8 9 10 10 9 6 4 9 11 8 5 6 3 4 4 4 4 4 4 4 4 4 4 4 4
18 12 12 14 14 12 14 10 12 14 9 10 9 11 9 10 9 7 7 8 11 12 12 11 12 9 9 9 7 4 4 4 1 2 4 3 2 3 3 3 4 3 3 4
18 19 16 15 14 15 14 13 11 9 10 12 15 10 10 13 11 9 9 10 10 9 8 11 16 13 9 12 11 6 5 7 7 7 6 7 7 6 6 7 4 3 2 2
17 18 15 15 13 14 13 11 11 12 11 13 12 12 12 10 9 9 9 8 6 4 6 8 9 10 9 11 17 5 7 8 7 6 6 6 5 5 5 6 6 5 5 4
15 14 14 13 13 13 13 11 11 11 9 9 11 10 8 7 7 5 7 5 6 7 7 9 7 5 6 11 9 6 6 7 6 6 5 5 6 5 5 5 5 5 5 3
12 11 12 11 12 13 11 10 10 9 9 8 7 8 7 6 6 5 5 5 3 9 5 4 4 10 8 13 5 6 6 6 6 5 6 5 5 5 4 4 3 4 4 3
10 10 11 10 10 9 7 7 6 6 6 6 5 5 5 4 4 4 5 6 5 7 4 4 6 10 12 6 4 5 5 4 3 4 3 3 4 3 3 3 4 4 5 4
11 10 9 8 7 6 7 7 6 5 6 6 6 6 5 4 4 4 5 4 4 5 3 2 4 6 8 4 4 4 5 4 1 2 2 4 3 4 3 3 3 3 2 2
9 7 6 7 7 4 6 6 6 5 6 4 4 6 7 5 5 3 4 3 6 5 5 8 9 5 3 3 1 3 5 5 5 4 4 3 3 2 1 2 3 3 4 4
7 4 4 6 7 5 5 4 3 4 4 4 3 4 4 3 4 2 3 4 5 6 3 5 5 5 5 4 4 5 5 6 3 3 3 4 3 2 4 5 4 5 5 5
5 6 3 5 6 4 4 4 4 4 4 4 4 3 4 4 2 1 1 1 2 1 1 1 4 5 6 6 6 6 6 4 3 4 4 4 5 5 6 5 5 5 5 5
Wind_Direction
294 293 325 308 223 187 180 212 146 243 151 219 175 152 171 165 174 176 179 165 164 167 166 166 166 174 172 178 155 146 138 139 154 139 138 131 129 135 142 142 164 115 108 75
298 317 335 349 341 335 282 338 228 126 295 178 173 163 172 174 127 166 174 177 174 172 172 172 171 175 173 171 157 151 144 149 136 130 132 133 136 146 150 155 140 128 135 157
276 309 313 333 274 268 193 314 310 19 335 33 145 87 68 83 117 164 190 184 182 177 178 177 175 169 172 159 152 156 140 142 139 135 131 134 136 148 160 166 160 168 183 128
219 38 345 251 4 65 69 42 30 45 38 54 75 66 39 22 18 13 67 199 187 177 180 178 170 164 162 144 147 146 138 143 141 131 128 134 145 165 168 167 166 166 199 173
125 196 286 321 26 38 71 29 35 46 26 17 33 71 26 10 348 328 317 286 211 182 179 172 169 163 151 141 132 124 139 137 138 136 121 135 172 191 198 179 172 170 178 211
106 132 240 24 13 9 20 45 32 44 27 21 9 47 281 351 350 358 14 356 249 190 183 156 63 144 140 145 140 137 137 147 140 152 154 171 187 187 170 168 177 173 175 175
333 196 153 345 5 316 57 214 36 53 359 35 349 220 198 25 28 47 40 24 20 88 86 68 55 42 5 246 130 132 137 155 149 168 153 160 169 156 156 154 128 85 159 193
271 137 113 357 37 81 200 25 33 18 335 341 308 301 96 56 7 63 47 40 59 53 58 94 102 56 343 295 79 46 52 41 63 102 119 127 138 139 147 162 187 213 226 259
123 210 228 100 118 73 56 54 10 347 311 342 316 307 110 69 64 72 62 58 67 90 76 58 88 134 129 295 284 164 135 136 133 138 123 157 138 158 194 220 209 227 215 242
92 26 56 46 72 74 62 3 319 325 347 330 298 282 98 66 60 71 75 72 68 63 76 87 120 152 164 171 185 148 168 152 136 158 177 171 169 173 209 222 228 227 220 234
106 25 86 63 68 51 24 299 319 46 52 38 28 22 77 84 71 83 83 89 92 94 92 97 141 184 179 177 173 162 158 146 175 181 178 179 192 201 211 224 196 193 196 177
137 141 110 89 128 101 337 293 76 90 61 46 45 37 59 60 69 74 88 108 108 113 120 128 181 174 168 158 142 150 172 188 197 186 190 180 202 235 249 231 210 208 202 164
121 94 126 237 204 119 263 323 103 96 92 66 28 68 66 71 70 82 81 86 94 119 102 159 211 163 154 136 152 177 176 230 229 196 166 189 203 203 210 288 217 269 294 243
54 112 218 297 87 21 336 116 106 113 97 67 79 69 66 60 58 63 68 86 79 74 73 68 69 42 68 108 112 107 180 63 110 65 6 24 109 138 125 95 31 285 267 294
68 17 50 116 52 20 24 73 58 45 14 19 50 62 59 60 59 44 34 68 71 75 66 68 54 33 1 22 32 46 50 55 67 70 27 46 28 31 47 39 19 12 25 9
75 296 312 26 178 47 102 104 107 99 105 16 7 68 59 58 70 61 55 52 68 65 60 51 54 31 12 34 29 27 31 55 53 56 48 35 31 35 25 21 38 38 52 15
286 72 48 51 50 43 40 16 55 75 63 41 347 52 77 72 76 71 66 62 69 60 56 47 17 32 44 34 26 11 341 356 41 32 57 72 77 68 77 81 75 74 98 46
77 83 70 69 80 85 69 83 87 113 128 142 206 129 100 80 77 72 75 72 61 50 41 22 22 44 33 33 6 347 335 315 360 87 73 49 34 118 98 97 84 66 24 51
82 85 84 81 84 85 85 80 78 76 79 92 88 84 84 77 75 67 54 55 52 47 25 21 25 34 23 4 1 344 348 34 36 39 36 34 36 32 40 27 25 22 28 62
86 87 90 92 91 96 96 89 89 87 93 94 89 73 67 67 69 72 72 70 61 44 29 25 23 10 6 354 353 346 36 32 32 30 40 40 38 28 28 32 31 25 23 54
87 87 89 92 91 88 88 86 84 77 73 77 96 97 89 74 84 100 64 66 19 30 58 41 40 2 353 348 341 20 41 36 31 25 32 37 20 18 21 17 32 23 353 18
96 95 94 91 86 82 80 82 84 84 85 86 94 103 104 103 96 82 59 91 71 58 62 40 23 1 351 358 18 24 33 43 42 29 20 16 15 357 2 21 28 341 315 322
116 109 95 87 92 95 100 98 96 100 97 104 109 112 101 115 131 104 73 16 50 65 63 39 10 2 354 353 28 20 16 29 74 66 0 344 327 339 331 329 321 316 315 337
98 100 109 117 109 91 84 82 90 87 86 73 70 75 105 109 73 88 109 108 104 65 83 352 323 360 354 340 46 10 343 329 307 176 291 286 280 292 327 22 39 2 33 53
122 136 141 121 110 112 112 114 103 92 99 97 87 83 80 61 110 140 153 184 195 185 218 222 243 272 301 313 43 308 288 278 261 236 229 271 317 75 53 268 255 254 232 249
153 144 147 166 151 162 160 172 153 167 165 122 91 102 114 124 134 164 205 202 219 232 222 195 211 224 245 252 245 261 268 271 283 111 176 187 201 230 259 263 265 265 257 256
100 107 121 75 69 56 87 106 112 78 74 103 129 138 149 154 181 180 288 329 277 20 80 162 206 207 232 242 250 260 256 261 175 196 219 221 227 236 243 249 252 248 248 249